Orbital Elements at Epoch 2459000.5 (2020-May-31.0) TDB
Reference: JPL 11 (heliocentric ecliptic J2000)
Element | Value | Uncertainty (1-sigma) | Units |
e | .3212782470304996 | 1.2624e-07 | |
a | 2.277052573572463 | 1.2571e-08 | au |
q | 1.545485114338815 | 2.9459e-07 | au |
i | 7.323252204185568 | 8.9103e-06 | deg |
node | 17.13469156274698 | 5.5485e-05 | deg |
peri | 322.3786703589312 | 5.6787e-05 | deg |
M | 176.4895054338189 | 9.8794e-06 | deg |
tp | 2458385.217732185535 (2018-Sep-23.71773219) | 3.2379e-05 | TDB |
period | 1255.041289105247 3.44 | 1.0393e-05 2.845e-08 | d yr |
n | .2868431525919389 | 2.3754e-09 | deg/d |
Q | 3.008620032806112 | 1.661e-08 | au |
|
| | Orbit Determination Parameters
Additional Information
|